CW9687 Weather Reports


Display with metric or nautical units.
time (UTC)temp
F
wind
direction
speed
MPH
gust
MPH
rain 1hr
in
rain 24hr
in
rain mn
in
humidity
%
barometer
mb
20260508182501 64 325 4.0 9.0 0.00 0.00 0.00 73 1017.3
20260508182059 64 264 3.0 9.0 0.00 0.00 0.00 74 1017.3
20260508181558 63 258 3.0 9.0 0.00 0.00 0.00 73 1017.4
20260508181101 63 282 6.0 11.0 0.00 0.00 0.00 74 1017.4
20260508180557 63 296 5.0 11.0 0.00 0.00 0.00 74 1017.4
20260508180058 63 265 0.0 9.0 0.00 0.00 0.00 75 1017.4
20260508175548 63 276 5.0 9.0 0.00 0.00 0.00 74 1017.3
20260508175046 63 271 3.0 8.0 0.00 0.00 0.00 74 1017.2
20260508174600 63 281 0.0 5.0 0.00 0.00 0.00 75 1017.3
20260508174044 63 251 0.0 6.0 0.00 0.00 0.00 76 1017.3
20260508173542 62 296 2.0 7.0 0.00 0.00 0.00 77 1017.5
20260508173041 62 29 2.0 7.0 0.00 0.00 0.00 78 1017.5
20260508172539 61 309 4.0 7.0 0.00 0.00 0.00 78 1017.6
20260508172041 61 289 2.0 8.0 0.00 0.00 0.00 78 1017.7
20260508171538 61 306 3.0 8.0 0.00 0.00 0.00 79 1017.7
20260508171036 61 319 1.0 8.0 0.00 0.00 0.00 80 1017.7
20260508170535 60 293 0.0 7.0 0.00 0.00 0.00 81 1017.6
20260508170034 60 329 4.0 7.0 0.00 0.00 0.00 82 1017.7
20260508165526 59 287 0.0 4.0 0.00 0.00 0.00 83 1017.7
20260508165024 59 316 1.0 6.0 0.00 0.00 0.00 84 1017.7
20260508164534 58 333 2.0 6.0 0.00 0.00 0.00 86 1017.6
20260508164022 57 48 0.0 4.0 0.00 0.00 0.00 86 1017.6
20260508163521 56 8 1.0 5.0 0.00 0.00 0.00 87 1017.7
20260508163022 56 20 1.0 4.0 0.00 0.00 0.00 87 1017.8
20260508162518 55 323 0.0 3.0 0.00 0.00 0.00 86 1017.8
20260508162017 55 323 0.0 4.0 0.00 0.00 0.00 87 1017.7
20260508161515 55 319 2.0 6.0 0.00 0.00 0.00 87 1017.7
20260508161015 55 321 2.0 6.0 0.00 0.00 0.00 87 1017.6
20260508160512 54 78 0.0 3.0 0.00 0.00 0.00 87 1017.6
20260508160058 54 78 0.0 3.0 0.00 0.00 0.00 87 1017.7
20260508155557 54 85 0.0 3.0 0.00 0.00 0.00 87 1017.7
20260508155055 54 85 0.0 4.0 0.00 0.00 0.00 87 1017.7
20260508154555 54 30 0.0 4.0 0.00 0.00 0.00 88 1017.7
20260508154053 54 11 1.0 5.0 0.00 0.00 0.00 88 1017.8
20260508153554 54 343 1.0 5.0 0.00 0.00 0.00 88 1017.8
20260508153057 54 114 0.0 2.0 0.00 0.00 0.00 88 1017.8
20260508152551 54 37 0.0 2.0 0.00 0.00 0.00 88 1017.7
20260508152051 54 15 0.0 4.0 0.00 0.00 0.00 88 1017.8
20260508151550 54 29 0.0 8.0 0.00 0.00 0.00 88 1017.7
20260508151049 54 20 1.0 8.0 0.00 0.00 0.00 88 1017.7
20260508150548 53 11 0.0 4.0 0.00 0.00 0.00 88 1017.6
20260508150043 53 50 0.0 4.0 0.00 0.00 0.00 88 1017.7
20260508145543 53 56 0.0 5.0 0.00 0.00 0.00 88 1017.7
20260508145039 53 33 1.0 5.0 0.00 0.00 0.00 88 1017.9
20260508144542 53 33 0.0 4.0 0.00 0.00 0.00 88 1017.8
20260508144038 53 35 0.0 4.0 0.00 0.00 0.00 88 1017.8
20260508143538 53 359 0.0 4.0 0.00 0.00 0.00 88 1017.9
20260508143036 53 21 0.0 3.0 0.00 0.00 0.00 88 1017.8
20260508142536 53 45 0.0 3.0 0.00 0.00 0.00 88 1017.8
20260508142135 53 45 0.0 3.0 0.00 0.00 0.00 88 1017.7
20260508141535 53 45 0.0 3.0 0.00 0.00 0.00 88 1017.7
20260508141034 53 48 0.0 3.0 0.00 0.00 0.00 88 1017.7
20260508140532 53 48 0.0 1.0 0.00 0.00 0.00 88 1017.7
20260508140026 53 48 0.0 4.0 0.00 0.00 0.00 88 1017.5
20260508135527 53 48 0.0 4.0 0.00 0.00 0.00 88 1017.5
20260508135025 53 33 0.0 6.0 0.00 0.00 0.00 88 1017.5
20260508134524 53 79 1.0 6.0 0.00 0.00 0.00 88 1017.5
20260508134023 53 103 1.0 6.0 0.00 0.00 0.00 88 1017.4
20260508133523 53 74 0.0 7.0 0.00 0.00 0.00 88 1017.4
20260508133022 53 71 0.0 7.0 0.00 0.00 0.00 88 1017.4
20260508132526 53 20 0.0 4.0 0.00 0.00 0.00 88 1017.4
20260508132021 53 45 0.0 4.0 0.00 0.00 0.00 88 1017.3
20260508131521 53 46 0.0 3.0 0.00 0.00 0.00 88 1017.3
20260508131020 53 46 0.0 4.0 0.00 0.00 0.00 88 1017.2
20260508130520 53 46 1.0 4.0 0.00 0.00 0.00 88 1017.1
20260508130030 53 73 0.0 3.0 0.00 0.00 0.00 88 1017.0
20260508125518 53 73 0.0 0.0 0.00 0.00 0.00 88 1017.1
20260508125018 53 83 0.0 0.0 0.00 0.00 0.00 88 1017.1
20260508124518 53 83 0.0 0.0 0.00 0.00 0.00 88 1017.1
20260508124017 53 83 0.0 2.0 0.00 0.00 0.00 88 1016.9
20260508123516 53 83 0.0 3.0 0.00 0.00 0.00 87 1017.0
20260508123020 53 83 0.0 3.0 0.00 0.00 0.00 87 1016.9
20260508122519 53 83 0.0 2.0 0.00 0.00 0.00 87 1016.9
20260508122015 53 83 0.0 3.0 0.00 0.00 0.00 87 1016.9
20260508121515 53 83 0.0 3.0 0.00 0.00 0.00 87 1016.8
20260508121015 53 83 0.0 1.0 0.00 0.00 0.00 87 1016.8
20260508120514 53 83 0.0 2.0 0.00 0.00 0.00 87 1016.8
20260508120015 53 83 0.0 2.0 0.00 0.00 0.00 87 1016.9
20260508115515 53 83 0.0 3.0 0.00 0.00 0.00 87 1016.9
20260508115013 53 83 0.0 4.0 0.00 0.00 0.00 87 1016.9
20260508114513 53 83 0.0 4.0 0.00 0.00 0.00 87 1016.9
20260508114013 53 83 0.0 5.0 0.00 0.00 0.00 87 1016.9
20260508113517 53 83 1.0 5.0 0.00 0.00 0.00 87 1016.8
20260508113017 53 92 0.0 3.0 0.00 0.00 0.00 87 1016.8
20260508112513 53 62 0.0 2.0 0.00 0.00 0.00 87 1016.9
20260508112013 53 62 0.0 2.0 0.00 0.00 0.00 87 1016.8
20260508111512 53 61 0.0 0.0 0.00 0.00 0.00 87 1016.7
20260508111012 53 61 0.0 0.0 0.00 0.00 0.00 87 1016.7
20260508110511 53 61 0.0 0.0 0.00 0.00 0.00 87 1016.8
20260508110011 53 61 0.0 0.0 0.00 0.00 0.00 87 1016.8
20260508105511 53 61 0.0 0.0 0.00 0.00 0.00 87 1016.8
20260508105011 53 61 0.0 0.0 0.00 0.00 0.00 87 1016.8
20260508104510 53 61 0.0 0.0 0.00 0.00 0.00 87 1016.7
20260508104014 53 61 0.0 0.0 0.00 0.00 0.00 87 1016.7
20260508103510 53 61 0.0 0.0 0.00 0.00 0.00 87 1016.7
20260508103011 53 61 0.0 0.0 0.00 0.00 0.00 87 1016.7
20260508102510 53 61 0.0 0.0 0.00 0.00 0.00 87 1016.7
20260508102010 53 61 0.0 0.0 0.00 0.00 0.00 87 1016.7
20260508101509 53 61 0.0 0.0 0.00 0.00 0.00 87 1016.8
20260508101009 53 61 0.0 1.0 0.00 0.00 0.00 87 1016.8
20260508100508 53 61 0.0 2.0 0.00 0.00 0.00 87 1016.7
20260508100010 53 61 0.0 2.0 0.00 0.00 0.00 87 1016.8
20260508095511 53 61 0.0 2.0 0.00 0.00 0.00 86 1016.8
20260508095007 53 61 0.0 2.0 0.00 0.00 0.00 86 1016.7
20260508094507 53 61 0.0 1.0 0.00 0.00 0.00 86 1016.8
20260508094008 53 61 0.0 4.0 0.00 0.00 0.00 86 1016.7
20260508093507 53 61 0.0 4.0 0.00 0.00 0.00 86 1016.7
20260508093008 52 61 0.0 2.0 0.00 0.00 0.00 86 1016.7
20260508092505 52 61 0.0 2.0 0.00 0.00 0.00 86 1016.6
20260508092010 52 61 0.0 2.0 0.00 0.00 0.00 86 1016.7
20260508091511 52 61 0.0 2.0 0.00 0.00 0.00 85 1016.7
20260508091005 52 61 0.0 0.0 0.00 0.00 0.00 85 1016.8
20260508090505 52 61 0.0 0.0 0.00 0.00 0.00 85 1016.7
20260508090008 52 61 0.0 0.0 0.00 0.00 0.00 85 1016.7
20260508085507 52 61 0.0 0.0 0.00 0.00 0.00 85 1016.8
20260508085002 52 61 0.0 0.0 0.00 0.00 0.00 85 1016.8
20260508084503 52 61 0.0 0.0 0.00 0.00 0.00 85 1016.8
20260508084004 52 61 0.0 0.0 0.00 0.00 0.00 85 1016.8
20260508083501 52 61 0.0 0.0 0.00 0.00 0.00 85 1016.8
20260508083000 52 61 0.0 0.0 0.00 0.00 0.00 85 1016.8
20260508082601 52 61 0.0 0.0 0.00 0.00 0.00 85 1016.8
20260508082102 52 61 0.0 0.0 0.00 0.00 0.00 85 1016.9
20260508081610 52 61 0.0 0.0 0.00 0.00 0.00 85 1016.9
20260508081058 53 61 0.0 2.0 0.00 0.00 0.00 85 1016.9
20260508080558 53 61 0.0 2.0 0.00 0.00 0.00 85 1016.9
20260508080057 53 61 0.0 0.0 0.00 0.00 0.00 85 1017.0
20260508075557 53 61 0.0 0.0 0.00 0.00 0.00 84 1017.0
20260508075056 53 61 0.0 0.0 0.00 0.00 0.00 85 1017.1
20260508074556 53 61 0.0 1.0 0.00 0.00 0.00 85 1017.1
20260508074058 53 61 0.0 1.0 0.00 0.00 0.00 84 1017.1
20260508073555 53 61 0.0 0.0 0.00 0.00 0.00 84 1017.0
20260508073055 53 61 0.0 0.0 0.00 0.00 0.00 84 1017.0
20260508072554 53 61 0.0 0.0 0.00 0.00 0.00 84 1017.0
20260508072054 53 61 0.0 0.0 0.00 0.00 0.00 84 1017.1
20260508071554 53 61 0.0 0.0 0.00 0.00 0.00 84 1017.1
20260508071053 53 61 0.0 0.0 0.00 0.00 0.00 84 1017.1
20260508070555 53 61 0.0 0.0 0.00 0.00 0.00 84 1017.1
20260508070053 53 61 0.0 0.0 0.00 0.00 0.00 84 1017.1
20260508065555 53 61 0.0 0.0 0.00 0.00 0.00 84 1017.1
20260508065051 53 61 0.0 0.0 0.00 0.00 0.00 84 1017.1
20260508064653 54 61 0.0 0.0 0.00 0.00 0.00 84 1017.1
20260508064051 54 61 0.0 0.0 0.00 0.00 0.00 84 1017.0
20260508063551 54 61 0.0 0.0 0.00 0.00 0.00 84 1017.0
20260508063102 54 61 0.0 0.0 0.00 0.00 0.00 84 1016.8
20260508062553 54 61 0.0 0.0 0.00 0.00 0.00 84 1016.8
20260508062050 54 61 0.0 0.0 0.00 0.00 0.00 83 1016.9
20260508061551 54 61 0.0 0.0 0.00 0.00 0.00 83 1016.9
20260508061051 54 61 0.0 0.0 0.00 0.00 0.00 84 1016.7
20260508060550 54 61 0.0 0.0 0.00 0.00 0.00 83 1016.7
20260508060050 54 61 0.0 0.0 0.00 0.00 0.00 83 1016.7
20260508055549 54 61 0.0 0.0 0.00 0.00 0.00 83 1016.7
20260508055049 54 61 0.0 2.0 0.00 0.00 0.00 83 1016.8
20260508054550 54 61 0.0 0.0 0.00 0.00 0.00 83 1016.8
20260508054048 54 61 0.0 2.0 0.00 0.00 0.00 83 1016.8
20260508053548 54 61 0.0 2.0 0.00 0.00 0.00 83 1016.9
20260508053100 54 61 0.0 4.0 0.00 0.00 0.00 83 1016.8
20260508052548 55 61 1.0 4.0 0.00 0.00 0.00 83 1016.9
20260508052047 55 60 0.0 3.0 0.00 0.00 0.00 83 1016.9
20260508051548 55 60 0.0 3.0 0.00 0.00 0.00 82 1017.0
20260508051050 55 60 0.0 3.0 0.00 0.00 0.00 82 1016.9
20260508050547 55 60 0.0 3.0 0.00 0.00 0.00 82 1016.9
20260508050044 55 60 0.0 2.0 0.00 0.00 0.00 82 1016.9
20260508045542 55 60 0.0 2.0 0.00 0.00 0.00 82 1017.0
20260508045040 55 60 0.0 1.0 0.00 0.00 0.00 82 1017.0
20260508044541 55 60 0.0 1.0 0.00 0.00 0.00 82 1017.0
20260508044042 55 60 0.0 3.0 0.00 0.00 0.00 82 1016.9
20260508043540 55 60 1.0 4.0 0.00 0.00 0.00 81 1016.9
20260508043054 55 59 1.0 4.0 0.00 0.00 0.00 81 1016.9
20260508042540 55 50 1.0 4.0 0.00 0.00 0.00 81 1016.8
20260508042039 56 62 0.0 7.0 0.00 0.00 0.00 81 1016.8
20260508041548 56 71 1.0 7.0 0.00 0.00 0.00 81 1016.8
20260508041040 56 61 2.0 5.0 0.00 0.00 0.00 80 1016.8
20260508040540 56 69 0.0 4.0 0.00 0.00 0.00 80 1016.8
20260508040038 56 71 0.0 5.0 0.00 0.00 0.00 80 1016.8
20260508035533 56 71 0.0 5.0 0.00 0.00 0.00 80 1016.8
20260508035033 56 73 1.0 7.0 0.00 0.00 0.00 79 1016.7
20260508034534 56 70 2.0 7.0 0.00 0.00 0.00 79 1016.6
20260508034034 56 71 3.0 7.0 0.00 0.00 0.00 79 1016.6
20260508033532 57 86 4.0 7.0 0.00 0.00 0.00 78 1016.5
20260508033032 57 99 2.0 7.0 0.00 0.00 0.00 78 1016.5
20260508032532 57 116 2.0 6.0 0.00 0.00 0.00 77 1016.4
20260508032032 57 64 0.0 4.0 0.00 0.00 0.00 77 1016.3
20260508031532 57 69 1.0 5.0 0.00 0.00 0.00 77 1016.3
20260508031031 58 60 1.0 8.0 0.00 0.00 0.00 76 1016.3
20260508030532 58 102 2.0 8.0 0.00 0.00 0.00 76 1016.2
20260508030027 58 69 2.0 8.0 0.00 0.00 0.00 75 1016.1
20260508025525 59 97 0.0 8.0 0.00 0.00 0.00 75 1016.1
20260508025027 59 9 2.0 9.0 0.00 0.00 0.00 74 1015.9
20260508024524 59 69 2.0 9.0 0.00 0.00 0.00 74 1015.9
20260508024024 60 18 4.0 10.0 0.00 0.00 0.00 73 1015.8
20260508023525 60 42 5.0 10.0 0.00 0.00 0.00 73 1015.8
20260508023023 60 26 4.0 12.0 0.00 0.00 0.00 72 1015.9
20260508022523 61 54 3.0 10.0 0.00 0.00 0.00 72 1015.7
20260508022023 61 69 4.0 8.0 0.00 0.00 0.00 71 1015.8
20260508021524 62 19 2.0 8.0 0.00 0.00 0.00 71 1015.8
20260508021024 62 62 1.0 8.0 0.00 0.00 0.00 70 1015.7
20260508020523 63 23 3.0 8.0 0.00 0.00 0.00 70 1015.7
20260508020027 63 48 3.0 8.0 0.00 0.00 0.00 69 1015.7
20260508015516 64 40 2.0 7.0 0.00 0.00 0.00 69 1015.7
20260508015015 64 62 2.0 10.0 0.00 0.00 0.00 68 1015.7
20260508014515 65 51 0.0 10.0 0.00 0.00 0.00 68 1015.7
20260508014017 65 85 3.0 10.0 0.00 0.00 0.00 67 1015.7
20260508013514 66 12 1.0 6.0 0.00 0.00 0.00 67 1015.7
20260508013014 66 34 1.0 7.0 0.00 0.00 0.00 67 1015.6
20260508012519 66 321 0.0 8.0 0.00 0.00 0.00 67 1015.5
20260508012014 67 62 1.0 7.0 0.00 0.00 0.00 67 1015.5
20260508011515 67 19 2.0 11.0 0.00 0.00 0.00 66 1015.4
20260508011014 67 31 2.0 11.0 0.00 0.00 0.00 66 1015.4
20260508010514 67 48 3.0 9.0 0.00 0.00 0.00 66 1015.4
20260508010053 68 42 2.0 9.0 0.00 0.00 0.00 65 1015.3
20260508005556 68 335 1.0 7.0 0.00 0.00 0.00 65 1015.3
20260508005055 68 348 0.0 6.0 0.00 0.00 0.00 65 1015.2
20260508004552 68 19 0.0 10.0 0.00 0.00 0.00 65 1015.1
20260508004054 68 328 2.0 10.0 0.00 0.00 0.00 65 1015.2
20260508003551 68 56 0.0 8.0 0.00 0.00 0.00 65 1015.2
20260508003051 69 46 2.0 8.0 0.00 0.00 0.00 64 1015.2
20260508002551 69 44 3.0 10.0 0.00 0.00 0.00 64 1015.2
20260508002051 70 81 2.0 10.0 0.00 0.00 0.00 63 1015.2
20260508001612 70 36 3.0 10.0 0.00 0.00 0.00 62 1015.2
20260508001053 71 7 3.0 10.0 0.00 0.00 0.00 62 1015.1
20260508000550 72 37 2.0 8.0 0.00 0.00 0.00 61 1015.1
20260508000046 72 27 1.0 7.0 0.00 0.00 0.00 61 1015.0
20260507235543 73 313 0.0 10.0 0.00 0.00 0.00 60 1015.0
20260507235042 73 49 1.0 11.0 0.00 0.00 0.00 60 1014.9
20260507234542 74 40 3.0 11.0 0.00 0.00 0.00 59 1014.8
20260507234100 74 345 5.0 11.0 0.00 0.00 0.00 58 1014.8
20260507233541 74 324 1.0 8.0 0.00 0.00 0.00 59 1014.8
20260507233041 74 40 0.0 10.0 0.00 0.00 0.00 59 1014.8
20260507232540 74 7 1.0 9.0 0.00 0.00 0.00 59 1014.9
20260507232039 74 20 1.0 14.0 0.00 0.00 0.00 59 1014.9
20260507231543 74 266 5.0 14.0 0.00 0.00 0.00 58 1015.0
20260507231039 74 324 2.0 13.0 0.00 0.00 0.00 58 1015.0
20260507230539 74 348 4.0 13.0 0.00 0.00 0.00 58 1015.1
20260507230029 75 281 3.0 16.0 0.00 0.00 0.00 57 1015.1
20260507225529 75 316 6.0 17.0 0.00 0.00 0.00 56 1015.0
20260507225028 76 320 6.0 17.0 0.00 0.00 0.00 56 1015.1
20260507224537 76 8 3.0 12.0 0.00 0.00 0.00 56 1015.2
20260507224026 76 48 4.0 12.0 0.00 0.00 0.00 55 1015.1
20260507223526 76 348 1.0 9.0 0.00 0.00 0.00 56 1015.3
20260507223027 76 346 1.0 9.0 0.00 0.00 0.00 57 1015.2
20260507222526 76 323 2.0 10.0 0.00 0.00 0.00 57 1015.2
20260507222025 76 21 2.0 15.0 0.00 0.00 0.00 56 1015.2
20260507221525 76 123 4.0 15.0 0.00 0.00 0.00 56 1015.2
20260507221024 76 333 5.0 13.0 0.00 0.00 0.00 57 1015.2
20260507220523 76 32 1.0 14.0 0.00 0.00 0.00 56 1015.4
20260507220002 77 13 3.0 14.0 0.00 0.00 0.00 56 1015.4
20260507215606 77 239 1.0 11.0 0.00 0.00 0.00 56 1015.4
20260507215102 77 311 4.0 12.0 0.00 0.00 0.00 56 1015.5
20260507214604 77 19 4.0 12.0 0.00 0.00 0.00 56 1015.5
20260507214100 77 5 1.0 12.0 0.00 0.00 0.00 57 1015.6
20260507213600 77 11 3.0 18.0 0.00 0.00 0.00 58 1015.6
20260507213059 77 38 2.0 13.0 0.00 0.00 0.00 58 1015.6
20260507212601 77 10 4.0 12.0 0.00 0.00 0.00 58 1015.6
20260507212057 77 310 1.0 8.0 0.00 0.00 0.00 59 1015.6
20260507211556 77 350 2.0 11.0 0.00 0.00 0.00 59 1015.7
20260507211054 77 6 1.0 11.0 0.00 0.00 0.00 60 1015.8
20260507210558 76 23 2.0 11.0 0.00 0.00 0.00 60 1015.8
20260507210044 76 42 2.0 10.0 0.00 0.00 0.00 62 1015.8
20260507205544 75 353 2.0 10.0 0.00 0.00 0.00 63 1015.8
20260507205042 74 47 1.0 8.0 0.00 0.00 0.00 65 1015.8
20260507204544 73 358 4.0 8.0 0.00 0.00 0.00 65 1015.8
20260507204038 73 312 2.0 8.0 0.00 0.00 0.00 65 1015.9
20260507203536 72 289 1.0 8.0 0.00 0.00 0.00 66 1015.9
20260507203036 72 290 3.0 8.0 0.00 0.00 0.00 66 1016.0
20260507202533 71 291 2.0 8.0 0.00 0.00 0.00 67 1015.9
20260507202035 70 269 2.0 8.0 0.00 0.00 0.00 67 1015.9
20260507201532 70 274 4.0 8.0 0.00 0.00 0.00 68 1016.0
20260507201030 69 285 5.0 10.0 0.00 0.00 0.00 69 1016.0
20260507200531 69 272 3.0 10.0 0.00 0.00 0.00 68 1016.1
20260507200025 69 281 3.0 11.0 0.00 0.00 0.00 68 1016.1
20260507195521 69 258 5.0 11.0 0.00 0.00 0.00 68 1016.1
20260507195021 69 252 5.0 9.0 0.00 0.00 0.00 68 1016.2
20260507194521 69 258 4.0 11.0 0.00 0.00 0.00 68 1016.1
20260507194020 69 262 5.0 11.0 0.00 0.00 0.00 67 1016.2
20260507193519 69 276 2.0 10.0 0.00 0.00 0.00 67 1016.2
20260507193019 69 305 4.0 10.0 0.00 0.00 0.00 68 1016.3
20260507192516 69 298 4.0 10.0 0.00 0.00 0.00 69 1016.3
20260507192015 68 271 4.0 10.0 0.00 0.00 0.00 68 1016.3
20260507191515 68 283 3.0 8.0 0.00 0.00 0.00 68 1016.4
20260507191013 68 286 2.0 8.0 0.00 0.00 0.00 69 1016.5
20260507190512 68 290 3.0 9.0 0.00 0.00 0.00 69 1016.6
20260507190057 68 264 5.0 9.0 0.00 0.00 0.00 69 1016.6
20260507185554 68 314 4.0 10.0 0.00 0.00 0.00 69 1016.7
20260507185054 68 300 6.0 10.0 0.00 0.00 0.00 70 1016.7
20260507184600 68 269 3.0 10.0 0.00 0.00 0.00 69 1016.7
20260507184054 68 274 5.0 11.0 0.00 0.00 0.00 69 1016.7
20260507183549 68 312 5.0 12.0 0.00 0.00 0.00 69 1016.8
20260507183051 68 293 4.0 10.0 0.00 0.00 0.00 70 1016.8